Home   Weather   Vevey   Past weeks

Flag for Switzerland Past Weather in Vevey, Vaud, Switzerland — Yesterday and Last 2 Weeks

Now
27 °F

Chilly.


Feels Like: 27 °F
Forecast: 21 / 40 °F
Wind: 2 mph from North

Location: Aigle

Current Time: Jan 25, 2017 at 2:29:37 am

Latest Report: Jan 25, 2017 at 1:00 am


Visibility: N/A

Pressure: 30.29 "Hg

Humidity: 83%

Dew Point: 22 °F

Location of VeveyLocation

Past Weather in Vevey — Graph

°F

Vevey Temperature Yesterday

Maximum temperature yesterday: 29 °F (at 12:00 am)
Minimum temperature yesterday: 27 °F (at 11:00 am)
Average temperature yesterday: 28 °F

High & Low Weather Summary for the Past Weeks

 TemperatureHumidityPressure
High46 °F (Jan 13, 2:00 am)100% (Jan 10, 7:00 pm)30.59 "Hg (Jan 10, 7:00 pm)
Low3 °F (Jan 18, 9:00 am)47% (Jan 13, 3:00 am)29.67 "Hg (Jan 13, 12:00 am)
Average25 °F86%30.24 "Hg
* Reported Jan 10 1:00 am — Jan 25 1:00 am, Vevey, Weather by CustomWeather, © 2017

Note: Actual official high and low records may vary slightly from our data, if they occured in-between our weather recording intervals... More about our weather records

Advertising

Vevey Weather History for the Previous 24 Hours

Scroll right to see more
 ConditionsComfort  
Time TempWeatherWind HumidityBarometerVisibility
1:00 am
Wed, Jan 25
27 °FChilly.2 mph83%30.29 "HgN/A
12:00 am27 °FChilly.2 mph83%30.30 "HgN/A
11:00 pm
Tue, Jan 24
27 °FChilly.2 mph84%30.30 "HgN/A
10:00 pm27 °FChilly.3 mph83%30.30 "HgN/A
9:00 pm27 °FChilly.3 mph84%30.31 "HgN/A
8:00 pm27 °FChilly.3 mph85%30.31 "HgN/A
7:00 pm28 °FChilly.1 mph85%30.30 "HgN/A
6:00 pm28 °FChilly.1 mph85%30.30 "HgN/A
5:00 pm28 °FChilly.No wind83%30.30 "HgN/A
4:00 pm29 °FFog.2 mph83%30.29 "Hg1 mi
3:00 pm29 °FChilly.1 mph80%30.29 "HgN/A
2:00 pm28 °FChilly.3 mph83%30.29 "HgN/A
1:00 pm28 °FFog.5 mph85%30.30 "Hg1 mi
12:00 pm28 °FChilly.6 mph87%30.31 "HgN/A
11:00 am27 °FChilly.6 mph88%30.33 "HgN/A
10:00 am27 °FFog.6 mph88%30.32 "Hg5 mi
9:00 am28 °FChilly.3 mph81%30.30 "HgN/A
8:00 am28 °FChilly.1 mph83%30.29 "HgN/A
7:00 am28 °FFog.1 mph86%30.28 "Hg2 mi
6:00 am28 °FChilly.5 mph82%30.26 "HgN/A
5:00 am29 °FChilly.5 mph81%30.27 "HgN/A
4:00 am29 °FFog.5 mph80%30.26 "Hg3 mi
3:00 am29 °FChilly.1 mph83%30.27 "HgN/A
2:00 am29 °FChilly.2 mph83%30.27 "HgN/A
Weather by CustomWeather, © 2017

See weather overviewHow to use our weather pages